Wind_Speed
26 27 27 28 29 29 27 24 23 24 24 23 23 23 23 23 22 20 18 18 17 17 17 17 17 17 16 16 16 16 16 16 15 14 14 14 13 14 14 14 13 13 12 11 11 11 11 10 10
26 27 28 29 30 29 27 25 25 25 26 25 25 25 25 24 23 21 19 19 19 19 19 18 18 18 18 18 17 17 17 17 16 16 16 15 15 15 15 15 14 14 13 13 13 12 12 11 11
27 28 29 30 31 29 27 26 27 27 28 27 27 27 26 25 23 22 21 20 21 20 20 20 19 19 19 19 19 19 18 17 17 17 17 16 16 16 16 16 16 15 14 14 14 14 13 13 12
29 30 31 31 31 29 28 28 28 29 29 29 29 28 27 26 25 24 22 22 22 22 21 21 21 20 20 20 19 19 19 19 18 18 18 17 16 16 16 16 16 16 16 16 15 15 14 14 14
31 32 32 32 30 29 29 29 30 31 31 30 30 30 29 28 27 26 25 24 24 23 23 22 22 21 21 20 20 20 20 20 20 20 19 18 18 18 17 17 17 17 17 17 17 16 16 15 15
33 34 34 33 31 30 29 30 31 32 32 32 31 31 30 30 30 28 27 26 26 25 24 23 23 22 22 21 21 21 21 20 20 21 21 20 20 19 19 19 18 18 18 18 18 18 17 17 17
34 35 35 34 33 32 31 32 33 33 33 32 32 32 31 31 31 30 30 28 28 27 25 25 24 24 23 23 23 22 22 21 21 21 21 22 21 21 20 20 20 19 19 19 19 18 18 18 18
36 36 36 35 34 34 33 34 34 34 34 34 33 33 32 32 32 32 31 30 29 29 28 27 26 25 24 24 24 24 23 23 22 22 22 22 22 22 22 22 22 21 20 20 20 19 19 19 19
38 38 37 35 35 35 35 36 36 36 36 36 35 34 33 34 34 33 33 32 31 31 30 29 28 27 27 26 25 25 24 24 24 24 24 23 23 23 23 23 23 23 22 22 21 21 20 21 21
40 40 38 36 37 37 37 38 38 38 38 37 37 36 35 34 35 34 34 33 33 32 32 31 30 30 29 28 27 26 26 26 26 26 25 25 25 25 25 25 24 24 24 24 23 22 22 22 22
41 41 39 39 39 40 40 40 40 40 40 39 38 37 36 36 36 36 36 35 34 34 33 33 32 31 30 30 29 28 28 27 27 27 27 27 26 26 26 26 25 25 26 26 25 25 24 24 24
42 41 41 41 41 42 42 41 41 41 41 40 40 39 39 38 37 37 37 37 36 36 35 34 34 33 32 31 31 31 30 29 28 28 28 28 28 27 27 27 27 27 27 27 27 27 26 26 26
42 41 42 42 43 43 43 43 42 42 42 41 41 40 39 39 39 38 38 38 38 37 36 36 36 35 35 34 33 33 32 31 30 30 29 30 29 29 29 29 29 29 29 29 29 29 28 28 28
41 42 42 42 42 43 43 44 44 42 43 42 42 41 40 40 40 40 40 39 39 38 38 38 37 37 37 36 35 34 34 34 33 31 31 30 30 30 30 30 30 30 30 30 30 30 30 30 30
42 42 43 42 42 42 43 45 44 44 44 44 43 42 42 41 41 40 40 40 40 40 40 39 38 38 38 38 38 37 36 35 34 34 33 32 32 32 31 31 31 31 31 31 30 30 31 31 31
42 42 43 42 42 42 44 44 43 44 44 44 44 43 43 42 41 41 40 40 41 40 40 40 40 39 39 39 39 38 38 37 36 35 34 33 33 33 32 32 31 32 32 32 31 31 31 32 32
42 42 41 41 41 42 43 42 41 43 44 44 44 44 43 42 42 41 40 40 40 41 41 41 40 40 40 40 40 39 38 38 38 37 36 35 34 34 34 33 33 33 33 33 33 33 33 33 33
41 42 41 41 41 42 43 42 41 42 43 43 44 43 43 43 42 42 41 41 41 41 41 41 41 41 41 40 40 39 39 39 38 38 37 36 35 35 35 35 35 34 35 34 34 34 34 34 34
41 42 42 41 41 42 43 42 42 41 42 42 43 43 44 43 43 43 42 42 42 42 42 41 41 41 41 41 41 41 40 40 39 39 38 37 36 36 35 35 36 35 35 35 35 35 35 35 35
41 42 42 42 41 42 42 42 42 42 42 42 43 44 43 43 43 43 42 42 42 42 42 42 42 42 42 41 42 42 41 41 40 40 39 38 38 37 36 36 36 36 36 36 36 36 36 36 36
40 40 41 42 40 41 42 43 43 42 42 42 43 44 44 44 44 44 43 43 42 42 42 42 42 43 42 42 42 43 43 42 42 41 40 40 39 39 38 38 38 38 37 37 36 36 36 36 36
38 38 39 39 40 40 42 43 43 43 43 43 43 43 44 44 44 45 44 44 43 43 43 42 42 43 43 43 43 43 43 43 43 43 42 41 41 41 40 40 39 39 39 37 37 36 36 37 37
35 36 37 37 39 40 40 42 43 43 43 43 43 44 44 44 44 44 44 44 44 44 44 43 43 44 43 43 43 43 43 44 44 44 43 43 42 42 42 41 41 40 40 39 38 38 37 37 37
33 34 36 37 38 40 39 40 42 42 42 42 43 43 44 44 44 44 44 44 44 44 44 44 44 44 44 44 43 43 43 44 45 44 44 43 44 44 43 42 42 41 41 40 40 39 38 38 38
31 33 34 36 37 39 38 39 40 39 40 40 41 43 43 43 43 43 44 44 44 44 45 45 45 45 45 44 44 44 44 45 45 46 45 45 44 44 44 43 43 42 42 41 41 40 38 39 38
27 31 33 34 36 36 37 38 38 38 38 39 40 41 42 43 43 43 44 44 45 44 45 45 46 46 46 45 45 45 45 45 45 46 46 45 45 44 44 44 43 43 42 42 41 40 39 39 39
25 28 30 32 34 35 35 37 37 37 38 39 39 40 41 42 42 43 44 45 45 45 45 46 46 46 47 46 46 46 46 45 45 45 45 45 45 45 44 44 44 43 43 42 41 41 40 40 39
24 25 27 31 32 34 34 35 35 35 37 38 38 39 40 41 42 43 44 44 45 45 45 46 47 47 47 47 46 46 46 45 45 45 45 45 45 45 45 45 44 43 43 43 43 42 41 40 40
22 24 26 29 31 32 33 34 34 35 36 36 37 38 39 40 41 41 42 43 44 44 45 46 46 46 46 47 47 46 46 45 45 45 45 45 45 45 45 45 45 44 43 44 44 42 42 41 41
22 22 24 26 28 29 30 32 31 34 35 35 36 36 37 37 38 39 40 41 42 42 43 44 44 45 45 46 46 46 45 45 44 45 46 45 45 45 45 45 45 44 44 43 43 43 43 42 42
Wind_Direction
248 247 244 243 243 243 244 243 242 241 241 240 241 242 243 244 243 244 241 239 239 239 239 239 237 236 236 237 238 239 240 241 242 242 244 244 244 243 241 241 243 243 244 246 247 245 243 242 242
249 247 245 244 244 245 243 242 242 242 242 240 240 241 242 243 243 242 240 239 239 239 240 240 239 238 238 238 238 238 240 241 242 243 244 244 244 244 244 244 245 245 246 247 248 248 246 246 246
250 248 246 246 246 246 245 243 243 243 243 243 242 242 242 243 241 240 239 239 240 240 240 241 240 239 239 239 239 238 239 241 242 242 244 243 243 245 246 247 247 247 249 250 250 250 249 248 250
250 249 248 248 248 247 246 244 243 243 243 243 243 242 242 243 242 239 237 238 239 239 240 240 240 239 240 240 240 240 240 241 241 242 244 244 243 244 246 247 248 248 249 250 251 251 251 251 251
250 250 249 249 250 248 246 245 244 243 242 242 243 243 242 241 241 239 238 237 238 239 239 240 240 240 240 241 241 241 241 241 241 242 244 245 244 244 245 246 248 248 249 250 251 251 252 252 251
251 250 250 250 250 248 247 247 246 244 243 242 242 243 242 241 240 239 239 239 239 240 240 240 241 240 240 241 241 242 242 242 243 243 244 245 244 245 246 246 247 248 249 250 251 252 253 252 251
252 251 251 251 249 248 247 247 247 246 245 244 242 242 241 241 241 239 239 238 239 240 240 240 240 240 240 241 242 242 243 244 244 245 245 245 246 246 247 247 247 248 249 250 251 253 254 253 253
252 251 250 250 250 249 247 246 246 246 246 245 244 243 241 240 240 240 239 239 239 239 241 241 241 241 241 241 242 243 244 245 245 245 246 247 248 248 250 249 249 249 249 250 251 252 254 254 254
251 251 250 251 250 249 248 246 244 245 246 246 245 243 241 240 240 240 240 240 239 240 241 242 241 241 241 242 242 243 244 244 245 246 247 248 249 249 251 251 250 250 250 251 252 252 254 254 255
251 252 252 251 250 248 247 246 244 244 245 246 245 243 242 240 240 241 240 240 239 240 241 242 242 241 241 242 242 242 243 245 246 247 248 249 250 250 251 251 252 250 250 251 252 253 254 254 255
252 252 251 249 249 247 246 245 244 244 244 245 245 244 242 241 240 240 240 239 239 239 240 241 242 242 242 243 243 243 244 246 247 248 249 250 251 251 250 251 251 251 251 251 253 253 254 255 256
252 251 251 249 248 247 246 245 244 244 244 245 245 244 242 240 239 239 239 239 239 240 240 241 242 242 243 243 244 244 244 246 248 249 250 250 251 251 250 251 251 252 252 252 254 254 255 256 257
252 252 251 250 249 247 246 245 244 243 244 244 244 244 243 241 240 239 239 239 240 241 241 241 242 243 243 243 244 245 246 247 248 250 251 251 251 250 250 251 252 252 252 253 255 255 255 256 256
252 251 250 249 249 247 246 244 243 242 243 244 244 243 243 242 241 240 240 240 241 241 241 242 242 242 243 243 244 245 246 247 248 249 250 251 251 251 251 251 252 253 253 254 255 256 256 256 256
253 251 249 248 248 247 246 244 243 243 242 243 243 243 243 242 241 241 241 240 241 242 242 242 242 242 243 243 245 245 246 247 248 249 250 251 252 251 252 252 252 253 253 254 255 256 256 257 256
252 250 249 248 248 247 246 245 243 243 243 242 242 243 242 242 241 241 240 241 241 242 242 242 242 243 243 243 244 245 246 247 248 250 250 251 251 251 251 252 253 253 254 255 256 257 257 258 258
252 250 249 248 247 247 246 246 243 243 243 242 242 241 241 241 241 240 240 240 241 241 241 242 242 243 243 243 243 245 246 247 248 250 251 251 251 252 252 252 253 254 255 257 258 258 258 259 260
252 251 250 248 247 246 246 245 243 243 242 241 240 239 239 239 240 240 240 240 240 241 241 242 242 243 243 243 243 244 245 247 248 249 250 250 251 252 253 253 254 255 255 257 258 257 258 260 261
251 250 249 248 247 246 246 244 243 243 242 240 238 238 238 238 238 239 239 239 240 241 241 242 242 243 243 244 243 243 245 246 247 248 249 250 251 252 253 254 255 255 256 257 257 257 258 259 261
250 249 248 247 247 247 245 244 242 242 241 240 238 237 237 237 237 238 239 239 240 240 241 242 242 243 243 244 244 243 244 245 247 248 249 250 250 252 253 254 254 254 256 257 257 258 258 259 260
249 249 248 247 247 247 245 243 241 241 240 239 238 237 237 237 237 238 239 240 241 241 241 241 243 243 244 244 244 244 244 245 246 247 248 248 250 251 253 254 255 254 254 256 257 259 258 259 259
248 247 248 247 246 245 243 243 240 241 241 240 239 238 238 238 238 238 238 239 240 241 241 241 242 243 244 244 245 245 245 245 245 246 247 248 250 251 252 253 254 254 255 255 257 259 259 258 258
247 246 246 245 244 244 242 243 242 242 241 241 241 240 240 239 239 239 239 239 240 240 241 241 242 243 244 245 245 246 245 245 245 246 247 248 249 251 251 252 253 253 254 255 257 257 259 258 258
247 245 245 244 243 243 242 243 242 241 242 241 241 242 242 242 241 241 241 240 241 241 241 242 243 244 245 245 245 246 246 245 246 247 247 248 249 250 251 252 252 252 253 254 255 257 259 259 259
246 244 244 243 242 243 241 243 243 241 242 242 242 242 243 243 243 242 242 242 242 242 242 242 243 244 245 245 245 246 247 247 247 247 248 248 250 250 251 251 251 252 253 253 253 255 258 259 257
248 245 244 245 246 245 243 243 243 242 243 243 243 244 243 243 243 243 243 243 243 242 243 243 243 243 244 245 246 247 247 247 247 248 248 248 248 249 250 251 251 252 252 252 253 255 257 258 257
248 244 244 245 246 246 245 243 243 242 243 244 244 244 244 244 244 243 243 244 243 243 243 244 244 244 243 244 245 246 247 248 248 247 248 248 248 249 249 249 250 251 251 251 253 255 256 256 257
248 246 244 241 243 245 245 244 243 241 242 243 245 245 245 244 244 244 244 244 243 244 244 244 244 244 243 243 244 245 247 247 248 248 248 248 248 248 248 249 250 250 250 250 251 253 254 255 256
250 247 245 244 244 245 247 247 246 245 244 244 245 246 246 245 244 244 244 243 244 244 243 243 244 244 244 243 243 244 246 247 248 248 247 248 248 248 249 248 249 249 249 249 249 251 253 254 255
251 249 247 245 244 245 248 249 249 248 247 247 247 248 248 246 245 243 243 243 243 244 244 244 244 245 244 243 243 244 245 247 248 248 248 247 247 248 248 248 248 248 248 250 250 251 253 254 255
Height
5814 5815 5817 5818 5820 5821 5823 5826 5828 5829 5829 5831 5832 5833 5834 5836 5839 5842 5843 5842 5843 5845 5846 5847 5848 5849 5850 5852 5853 5854 5855 5856 5858 5859 5860 5861 5862 5863 5864 5865 5866 5867 5868 5868 5869 5869 5870 5870 5871
5809 5810 5812 5813 5813 5815 5819 5821 5823 5824 5825 5826 5827 5828 5830 5832 5834 5836 5838 5839 5840 5841 5843 5844 5845 5846 5847 5849 5850 5852 5853 5854 5855 5857 5858 5859 5860 5861 5862 5863 5864 5865 5866 5867 5867 5868 5868 5869 5869
5804 5805 5806 5807 5808 5811 5814 5816 5817 5818 5819 5821 5822 5824 5825 5827 5830 5832 5834 5835 5837 5838 5839 5840 5842 5843 5844 5846 5847 5849 5850 5851 5853 5854 5855 5856 5858 5859 5860 5861 5862 5863 5864 5865 5865 5866 5867 5867 5868
5798 5799 5800 5801 5803 5807 5809 5810 5811 5812 5814 5815 5817 5819 5821 5823 5825 5828 5829 5831 5832 5834 5835 5837 5838 5839 5841 5843 5844 5846 5847 5849 5850 5851 5852 5854 5855 5856 5858 5859 5859 5861 5862 5862 5863 5864 5864 5865 5866
5791 5792 5793 5794 5797 5801 5803 5804 5805 5806 5807 5810 5811 5813 5815 5817 5819 5822 5824 5826 5827 5829 5831 5833 5834 5836 5838 5839 5841 5842 5844 5845 5847 5848 5850 5851 5852 5854 5855 5856 5857 5858 5859 5860 5860 5861 5862 5862 5863
5784 5785 5787 5788 5792 5795 5796 5797 5797 5799 5801 5803 5805 5807 5809 5811 5814 5816 5818 5821 5822 5824 5827 5828 5830 5832 5834 5835 5837 5839 5840 5842 5843 5845 5846 5848 5849 5851 5852 5853 5854 5855 5856 5857 5857 5858 5859 5860 5860
5777 5777 5779 5782 5785 5787 5790 5790 5791 5793 5794 5797 5799 5801 5803 5805 5807 5810 5812 5815 5817 5819 5822 5824 5826 5827 5829 5831 5833 5835 5837 5838 5840 5841 5842 5844 5845 5847 5848 5849 5850 5851 5852 5853 5854 5855 5856 5856 5857
5767 5769 5771 5774 5777 5780 5782 5782 5784 5785 5787 5790 5792 5795 5797 5799 5801 5804 5806 5809 5811 5814 5816 5819 5821 5823 5825 5827 5829 5830 5832 5834 5836 5837 5838 5840 5841 5843 5844 5845 5846 5847 5848 5849 5850 5851 5852 5853 5853
5758 5761 5763 5767 5770 5772 5773 5774 5776 5777 5779 5782 5785 5788 5790 5792 5794 5797 5800 5803 5805 5808 5810 5813 5815 5818 5820 5822 5824 5826 5828 5829 5831 5833 5834 5836 5837 5838 5839 5841 5842 5843 5844 5845 5846 5847 5848 5849 5850
5748 5750 5755 5759 5761 5762 5764 5765 5767 5769 5771 5774 5777 5780 5782 5785 5787 5790 5793 5796 5799 5802 5804 5806 5809 5812 5814 5817 5819 5821 5822 5824 5826 5828 5829 5831 5832 5833 5835 5836 5837 5838 5840 5841 5842 5843 5844 5845 5846
5737 5741 5746 5748 5750 5751 5754 5756 5758 5760 5763 5766 5769 5772 5774 5777 5780 5782 5785 5789 5792 5795 5798 5800 5803 5805 5808 5811 5813 5815 5817 5819 5820 5822 5824 5825 5827 5828 5829 5831 5832 5833 5835 5836 5837 5838 5839 5840 5841
5727 5731 5733 5736 5738 5740 5743 5746 5748 5751 5755 5757 5760 5763 5766 5769 5772 5775 5778 5781 5784 5787 5791 5793 5796 5798 5801 5804 5806 5809 5811 5813 5815 5816 5818 5819 5821 5822 5823 5825 5826 5828 5829 5830 5832 5833 5834 5835 5836
5716 5720 5722 5724 5726 5729 5732 5735 5738 5742 5745 5747 5750 5753 5757 5760 5763 5767 5770 5773 5776 5780 5783 5786 5789 5791 5794 5797 5799 5801 5804 5806 5808 5810 5811 5813 5815 5816 5818 5819 5820 5822 5823 5824 5826 5827 5828 5829 5830
5705 5708 5710 5712 5715 5718 5720 5724 5727 5732 5734 5737 5741 5744 5747 5750 5754 5758 5762 5765 5768 5771 5774 5778 5781 5784 5786 5789 5792 5794 5797 5799 5801 5803 5805 5807 5808 5810 5811 5813 5814 5815 5817 5818 5819 5820 5822 5823 5824
5693 5695 5698 5701 5704 5707 5709 5712 5717 5722 5724 5727 5731 5734 5737 5741 5745 5749 5753 5756 5760 5763 5765 5769 5772 5775 5778 5781 5784 5786 5789 5791 5794 5796 5798 5800 5801 5803 5805 5806 5807 5808 5810 5811 5812 5814 5815 5816 5817
5680 5682 5686 5691 5693 5695 5698 5702 5708 5709 5713 5717 5720 5724 5728 5732 5736 5740 5743 5747 5750 5753 5756 5760 5763 5766 5769 5772 5775 5778 5781 5783 5786 5788 5790 5792 5794 5796 5797 5799 5800 5801 5803 5804 5805 5806 5808 5809 5809
5667 5670 5674 5679 5681 5683 5686 5692 5697 5699 5702 5706 5710 5714 5717 5721 5726 5730 5734 5737 5741 5744 5747 5751 5754 5757 5760 5764 5767 5770 5772 5775 5777 5780 5782 5784 5786 5788 5790 5791 5793 5794 5796 5797 5798 5799 5800 5801 5802
5657 5659 5663 5666 5669 5672 5675 5680 5685 5687 5691 5695 5699 5703 5707 5711 5716 5720 5724 5727 5731 5734 5738 5742 5745 5748 5751 5754 5758 5761 5764 5766 5769 5771 5774 5776 5778 5780 5782 5784 5785 5786 5788 5789 5790 5791 5792 5793 5794
5644 5647 5650 5655 5657 5660 5664 5669 5673 5676 5679 5684 5688 5692 5696 5701 5705 5709 5714 5718 5721 5725 5729 5732 5736 5739 5742 5745 5748 5751 5754 5757 5760 5762 5765 5767 5770 5772 5774 5775 5777 5778 5780 5781 5782 5783 5784 5785 5785
5631 5634 5638 5642 5646 5649 5652 5657 5661 5664 5668 5672 5677 5681 5686 5690 5695 5699 5703 5708 5712 5715 5719 5722 5726 5729 5732 5735 5738 5742 5745 5748 5751 5753 5756 5758 5761 5763 5765 5766 5768 5770 5771 5772 5773 5774 5775 5776 5776
5619 5623 5627 5631 5635 5637 5641 5645 5649 5653 5656 5661 5666 5670 5675 5680 5685 5689 5693 5697 5701 5705 5709 5712 5715 5719 5722 5725 5728 5732 5735 5738 5741 5744 5746 5749 5751 5753 5756 5757 5759 5760 5762 5763 5764 5765 5766 5767 5767
5609 5613 5616 5619 5623 5625 5629 5632 5638 5642 5645 5650 5655 5660 5665 5669 5674 5678 5682 5686 5690 5694 5698 5702 5705 5708 5711 5715 5718 5721 5725 5728 5731 5733 5736 5739 5742 5744 5746 5748 5749 5751 5753 5754 5755 5756 5757 5757 5758
5599 5602 5605 5608 5611 5614 5618 5622 5627 5630 5634 5640 5645 5650 5654 5659 5663 5667 5671 5675 5679 5683 5687 5691 5694 5697 5701 5704 5707 5711 5714 5717 5720 5723 5726 5729 5731 5733 5735 5737 5739 5741 5743 5744 5745 5747 5748 5748 5749
5589 5592 5595 5597 5600 5604 5609 5612 5615 5620 5625 5630 5634 5638 5643 5647 5652 5656 5660 5664 5668 5672 5675 5679 5683 5686 5690 5693 5696 5700 5703 5706 5709 5712 5715 5718 5721 5723 5725 5727 5729 5731 5733 5734 5736 5737 5738 5739 5740
5580 5583 5586 5588 5590 5594 5599 5601 5605 5610 5614 5618 5622 5627 5631 5635 5640 5644 5648 5652 5656 5660 5664 5668 5671 5675 5678 5682 5685 5688 5691 5695 5698 5701 5704 5707 5709 5712 5714 5716 5718 5720 5722 5724 5726 5727 5728 5729 5730
5571 5574 5577 5580 5582 5585 5588 5590 5596 5600 5603 5607 5611 5615 5619 5624 5628 5632 5636 5640 5645 5649 5652 5656 5659 5663 5667 5670 5673 5677 5680 5683 5686 5689 5692 5695 5698 5701 5703 5705 5707 5710 5712 5714 5715 5717 5718 5719 5720
5563 5565 5569 5571 5572 5576 5578 5581 5586 5590 5593 5596 5601 5605 5608 5612 5616 5620 5624 5628 5633 5637 5640 5644 5647 5651 5655 5658 5661 5665 5668 5671 5674 5678 5681 5684 5686 5689 5691 5694 5696 5699 5701 5703 5705 5707 5708 5709 5711
5556 5558 5560 5562 5564 5566 5569 5573 5577 5580 5583 5587 5590 5594 5597 5601 5605 5609 5612 5616 5620 5624 5627 5631 5634 5638 5642 5646 5649 5653 5656 5659 5663 5666 5669 5672 5675 5677 5680 5682 5685 5687 5690 5692 5694 5696 5698 5699 5701
5550 5551 5552 5554 5557 5560 5561 5567 5569 5572 5575 5578 5581 5583 5586 5590 5594 5597 5601 5604 5608 5611 5615 5618 5622 5626 5629 5633 5637 5641 5644 5648 5651 5654 5657 5660 5663 5666 5668 5671 5673 5676 5678 5681 5683 5686 5687 5689 5691
5543 5544 5546 5548 5550 5552 5555 5560 5560 5563 5566 5568 5571 5574 5576 5579 5583 5586 5589 5593 5596 5599 5603 5606 5610 5613 5617 5621 5625 5629 5632 5636 5639 5642 5646 5648 5651 5654 5657 5659 5662 5665 5668 5670 5672 5675 5677 5678 5680